This demonstration page uses our WeatherBlox Daily Observations layout. Learn more.

38.89511, -77.03637

Hourly Observations for July 1, 2019

Temp ( °F °C ) Dew Point ( °F °C ) Humidity (%) Winds ( mph kmh ) Pressure ( in mb ) Visibility ( mi km ) Precip ( " mm )
12:52 am 00:52 Partly Cloudy 78 25.6 55 12.8 45 45 NNE 13 20 29.91 1013 10 16.09344 0 0
1:52 am 01:52 Partly Cloudy 75 23.9 55 12.8 50 50 N 10 17 29.94 1014 10 16.09344 0 0
2:52 am 02:52 Partly Cloudy 73 22.8 54 12.2 51 51 NE 10 17 29.94 1014 10 16.09344 0 0
3:52 am 03:52 Partly Cloudy 72 22.2 55 12.8 55 55 E 3 6 29.94 1014 10 16.09344 0 0
4:52 am 04:52 Mostly Clear 71 21.7 55 12.8 57 57 NE 9 15 29.94 1014 10 16.09344 0 0
5:52 am 05:52 Mostly Cloudy 70 21.1 55 12.8 59 59 NNE 8 13 29.94 1014 10 16.09344 0 0
6:52 am 06:52 Mostly Sunny 71 21.7 55 12.8 57 57 N 7 11 29.97 1015 10 16.09344 0 0
7:52 am 07:52 Mostly Sunny 73 22.8 57 13.9 57 57 N 6 9 29.97 1015 10 16.09344 0 0
8:52 am 08:52 Mostly Cloudy 75 23.9 56 13.3 52 52 NNW 6 9 29.97 1015 10 16.09344 0 0
9:52 am 09:52 Mostly Cloudy 77 25 56 13.3 48 48 VRB 7 11 30 1016 10 16.09344 0 0
10:52 am 10:52 Mostly Cloudy 79 26.1 55 12.8 44 44 NW 12 19 30 1016 10 16.09344 0 0
11:52 am 11:52 Partly Cloudy 81 27.2 55 12.8 41 41 undefined N/A 29.97 1015 10 16.09344 0 0
12:52 pm 12:52 Partly Cloudy 82 27.8 54 12.2 38 38 WNW 5 7 29.97 1015 10 16.09344 0 0
1:52 pm 13:52 Partly Cloudy 83 28.3 56 13.3 40 40 VRB 6 9 29.97 1015 10 16.09344 0 0
2:52 pm 14:52 Partly Cloudy 85 29.4 56 13.3 37 37 VRB 3 6 29.94 1014 10 16.09344 0 0
3:52 pm 15:52 Partly Cloudy 87 30.6 56 13.3 35 35 N 6 9 29.94 1014 10 16.09344 0 0
4:52 pm 16:52 Partly Cloudy 87 30.6 55 12.8 34 34 VRB 6 9 29.94 1014 10 16.09344 0 0
5:52 pm 17:52 Partly Cloudy 87 30.6 55 12.8 34 34 N 9 15 29.91 1013 10 16.09344 0 0
6:52 pm 18:52 Partly Cloudy 86 30 54 12.2 33 33 VRB 7 11 29.91 1013 10 16.09344 0 0
7:52 pm 19:52 Partly Cloudy 83 28.3 53 11.7 36 36 NNW 9 15 29.91 1013 10 16.09344 0 0
8:52 pm 20:52 Partly Cloudy 81 27.2 53 11.7 38 38 NNW 8 13 29.91 1013 10 16.09344 0 0
9:52 pm 21:52 Mostly Clear 81 27.2 54 12.2 39 39 N 5 7 29.94 1014 10 16.09344 0 0
10:52 pm 22:52 Partly Cloudy 76 24.4 63 17.2 64 64 SSE 5 7 29.94 1014 10 16.09344 0 0
11:52 pm 23:52 Partly Cloudy 75 23.9 63 17.2 66 66 SSE 3 6 29.94 1014 10 16.09344 0 0

Powered by AerisWeather